owner,sensor,date,latitude,longitude,vertical_datum,sea_water_practical_salinity,qcFlag 
DISL,ioos:station:DISL:MHPA:1,2011-11-01T00:00:00Z,30.6671,-87.9365,2.292,7.41,1111122 
DISL,ioos:station:DISL:MHPA:1,2011-11-01T00:30:00Z,30.6671,-87.9365,2.464,7.24,1111122 
DISL,ioos:station:DISL:MHPA:1,2011-11-01T01:00:00Z,30.6671,-87.9365,2.631,7.23,1111122 
DISL,ioos:station:DISL:MHPA:1,2011-11-01T01:30:00Z,30.6671,-87.9365,2.806,7.22,1111122 
DISL,ioos:station:DISL:MHPA:1,2011-11-01T02:00:00Z,30.6671,-87.9365,2.985,7.31,1111122 
DISL,ioos:station:DISL:MHPA:1,2011-11-01T02:30:00Z,30.6671,-87.9365,3.138,7.3,1111122 
DISL,ioos:station:DISL:MHPA:1,2011-11-01T03:00:00Z,30.6671,-87.9365,3.254,7.15,1111122 
DISL,ioos:station:DISL:MHPA:1,2011-11-01T03:30:00Z,30.6671,-87.9365,3.353,7.33,1111122 
DISL,ioos:station:DISL:MHPA:1,2011-11-01T04:00:00Z,30.6671,-87.9365,3.468,7.25,1111122 
DISL,ioos:station:DISL:MHPA:1,2011-11-01T04:30:00Z,30.6671,-87.9365,3.537,7.23,1111122 
DISL,ioos:station:DISL:MHPA:1,2011-11-01T05:00:00Z,30.6671,-87.9365,3.616,7.23,1111122 
DISL,ioos:station:DISL:MHPA:1,2011-11-01T05:30:00Z,30.6671,-87.9365,3.742,7.24,1111122 
DISL,ioos:station:DISL:MHPA:1,2011-11-01T06:00:00Z,30.6671,-87.9365,3.824,7.19,1111122 
DISL,ioos:station:DISL:MHPA:1,2011-11-01T06:30:00Z,30.6671,-87.9365,3.872,7.83,1111122 
DISL,ioos:station:DISL:MHPA:1,2011-11-01T07:00:00Z,30.6671,-87.9365,3.906,7.45,1111122 
DISL,ioos:station:DISL:MHPA:1,2011-11-01T07:30:00Z,30.6671,-87.9365,3.939,7.37,1111122 
DISL,ioos:station:DISL:MHPA:1,2011-11-01T08:00:00Z,30.6671,-87.9365,3.974,6.95,1111122 
DISL,ioos:station:DISL:MHPA:1,2011-11-01T08:30:00Z,30.6671,-87.9365,4.016,8.22,1111122 
DISL,ioos:station:DISL:MHPA:1,2011-11-01T09:00:00Z,30.6671,-87.9365,4.018,7.14,1111122 
DISL,ioos:station:DISL:MHPA:1,2011-11-01T09:30:00Z,30.6671,-87.9365,4.011,7.29,1111122 
DISL,ioos:station:DISL:MHPA:1,2011-11-01T10:00:00Z,30.6671,-87.9365,3.967,7.24,1111122 
DISL,ioos:station:DISL:MHPA:1,2011-11-01T10:30:00Z,30.6671,-87.9365,3.901,7.42,1111122 
DISL,ioos:station:DISL:MHPA:1,2011-11-01T11:00:00Z,30.6671,-87.9365,3.821,7.55,1111122 
DISL,ioos:station:DISL:MHPA:1,2011-11-01T11:30:00Z,30.6671,-87.9365,3.729,7.39,1111122 
DISL,ioos:station:DISL:MHPA:1,2011-11-01T12:00:00Z,30.6671,-87.9365,3.615,7.1,1111122 
DISL,ioos:station:DISL:MHPA:1,2011-11-01T12:30:00Z,30.6671,-87.9365,3.49,7.79,1111122 
DISL,ioos:station:DISL:MHPA:1,2011-11-01T13:00:00Z,30.6671,-87.9365,3.408,7.66,1111122 
DISL,ioos:station:DISL:MHPA:1,2011-11-01T13:30:00Z,30.6671,-87.9365,3.317,6.89,1111122 
DISL,ioos:station:DISL:MHPA:1,2011-11-01T14:00:00Z,30.6671,-87.9365,3.229,7.26,1111122 
DISL,ioos:station:DISL:MHPA:1,2011-11-01T14:30:00Z,30.6671,-87.9365,3.15,8.02,1111122 
DISL,ioos:station:DISL:MHPA:1,2011-11-01T15:00:00Z,30.6671,-87.9365,3.076,7.62,1111122 
DISL,ioos:station:DISL:MHPA:1,2011-11-01T15:30:00Z,30.6671,-87.9365,3.013,7.82,1111122 
DISL,ioos:station:DISL:MHPA:1,2011-11-01T16:00:00Z,30.6671,-87.9365,2.915,8.69,1111122 
DISL,ioos:station:DISL:MHPA:1,2011-11-01T16:30:00Z,30.6671,-87.9365,2.839,9.02,1111122 
DISL,ioos:station:DISL:MHPA:1,2011-11-01T17:00:00Z,30.6671,-87.9365,2.77,9.03,1111122 
DISL,ioos:station:DISL:MHPA:1,2011-11-01T17:30:00Z,30.6671,-87.9365,2.724,9.02,1111122 
DISL,ioos:station:DISL:MHPA:1,2011-11-01T18:00:00Z,30.6671,-87.9365,2.689,8.99,1111122 
DISL,ioos:station:DISL:MHPA:1,2011-11-01T18:30:00Z,30.6671,-87.9365,2.652,8.99,1111122 
DISL,ioos:station:DISL:MHPA:1,2011-11-01T19:00:00Z,30.6671,-87.9365,2.633,8.94,1111122 
DISL,ioos:station:DISL:MHPA:1,2011-11-01T19:30:00Z,30.6671,-87.9365,2.639,8.87,1111122 
DISL,ioos:station:DISL:MHPA:1,2011-11-01T20:00:00Z,30.6671,-87.9365,2.651,8.88,1111122 
DISL,ioos:station:DISL:MHPA:1,2011-11-01T20:30:00Z,30.6671,-87.9365,2.679,8.9,1111122 
DISL,ioos:station:DISL:MHPA:1,2011-11-01T21:00:00Z,30.6671,-87.9365,2.726,8.93,1111122 
DISL,ioos:station:DISL:MHPA:1,2011-11-01T21:30:00Z,30.6671,-87.9365,2.779,8.91,1111122 
DISL,ioos:station:DISL:MHPA:1,2011-11-01T22:00:00Z,30.6671,-87.9365,2.829,8.9,1111122 
DISL,ioos:station:DISL:MHPA:1,2011-11-01T22:30:00Z,30.6671,-87.9365,2.874,8.92,1111122 
DISL,ioos:station:DISL:MHPA:1,2011-11-01T23:00:00Z,30.6671,-87.9365,2.911,8.96,1111122 
DISL,ioos:station:DISL:MHPA:1,2011-11-01T23:30:00Z,30.6671,-87.9365,2.963,8.95,1111122 
DISL,ioos:station:DISL:MHPA:1,2011-11-02T00:00:00Z,30.6671,-87.9365,3.023,8.96,1111122 
DISL,ioos:station:DISL:MHPA:1,2011-11-02T00:30:00Z,30.6671,-87.9365,3.089,9.0,1111122 
DISL,ioos:station:DISL:MHPA:1,2011-11-02T01:00:00Z,30.6671,-87.9365,3.15,9.02,1111122 
DISL,ioos:station:DISL:MHPA:1,2011-11-02T01:30:00Z,30.6671,-87.9365,3.223,9.04,1111122 
DISL,ioos:station:DISL:MHPA:1,2011-11-02T02:00:00Z,30.6671,-87.9365,3.321,9.04,1111122 
DISL,ioos:station:DISL:MHPA:1,2011-11-02T02:30:00Z,30.6671,-87.9365,3.414,9.05,1111122 
DISL,ioos:station:DISL:MHPA:1,2011-11-02T03:00:00Z,30.6671,-87.9365,3.498,9.07,1111122 
DISL,ioos:station:DISL:MHPA:1,2011-11-02T03:30:00Z,30.6671,-87.9365,3.597,9.06,1111122 
DISL,ioos:station:DISL:MHPA:1,2011-11-02T04:00:00Z,30.6671,-87.9365,3.67,9.06,1111122 
DISL,ioos:station:DISL:MHPA:1,2011-11-02T04:30:00Z,30.6671,-87.9365,3.746,9.06,1111122 
DISL,ioos:station:DISL:MHPA:1,2011-11-02T05:00:00Z,30.6671,-87.9365,3.825,8.96,1111122 
DISL,ioos:station:DISL:MHPA:1,2011-11-02T05:30:00Z,30.6671,-87.9365,3.889,8.98,1111122 
DISL,ioos:station:DISL:MHPA:1,2011-11-02T06:00:00Z,30.6671,-87.9365,3.929,9.02,1111122 
DISL,ioos:station:DISL:MHPA:1,2011-11-02T06:30:00Z,30.6671,-87.9365,3.966,9.04,1111122 
DISL,ioos:station:DISL:MHPA:1,2011-11-02T07:00:00Z,30.6671,-87.9365,4.011,9.04,1111122 
DISL,ioos:station:DISL:MHPA:1,2011-11-02T07:30:00Z,30.6671,-87.9365,4.046,9.03,1111122 
DISL,ioos:station:DISL:MHPA:1,2011-11-02T08:00:00Z,30.6671,-87.9365,4.098,9.01,1111122 
DISL,ioos:station:DISL:MHPA:1,2011-11-02T08:30:00Z,30.6671,-87.9365,4.096,9.01,1111122 
DISL,ioos:station:DISL:MHPA:1,2011-11-02T09:00:00Z,30.6671,-87.9365,4.099,9.01,1111122 
DISL,ioos:station:DISL:MHPA:1,2011-11-02T09:30:00Z,30.6671,-87.9365,4.07,9.0,1111122 
DISL,ioos:station:DISL:MHPA:1,2011-11-02T10:00:00Z,30.6671,-87.9365,4.029,9.02,1111122 
DISL,ioos:station:DISL:MHPA:1,2011-11-02T10:30:00Z,30.6671,-87.9365,3.967,9.02,1111122 
DISL,ioos:station:DISL:MHPA:1,2011-11-02T11:00:00Z,30.6671,-87.9365,3.898,9.03,1111122 
DISL,ioos:station:DISL:MHPA:1,2011-11-02T11:30:00Z,30.6671,-87.9365,3.805,9.04,1111122 
DISL,ioos:station:DISL:MHPA:1,2011-11-02T12:00:00Z,30.6671,-87.9365,3.72,9.04,1111122 
DISL,ioos:station:DISL:MHPA:1,2011-11-02T12:30:00Z,30.6671,-87.9365,3.662,9.05,1111122 
DISL,ioos:station:DISL:MHPA:1,2011-11-02T13:00:00Z,30.6671,-87.9365,3.567,9.03,1111122 
DISL,ioos:station:DISL:MHPA:1,2011-11-02T13:30:00Z,30.6671,-87.9365,3.448,9.03,1111122 
DISL,ioos:station:DISL:MHPA:1,2011-11-02T14:00:00Z,30.6671,-87.9365,3.38,9.01,1111122 
DISL,ioos:station:DISL:MHPA:1,2011-11-02T14:30:00Z,30.6671,-87.9365,3.306,9.04,1111122 
DISL,ioos:station:DISL:MHPA:1,2011-11-02T15:00:00Z,30.6671,-87.9365,3.205,9.04,1111122 
DISL,ioos:station:DISL:MHPA:1,2011-11-02T15:30:00Z,30.6671,-87.9365,3.141,9.05,1111122 
DISL,ioos:station:DISL:MHPA:1,2011-11-02T16:00:00Z,30.6671,-87.9365,3.113,9.08,1111122 
DISL,ioos:station:DISL:MHPA:1,2011-11-02T16:30:00Z,30.6671,-87.9365,3.098,9.09,1111122 
DISL,ioos:station:DISL:MHPA:1,2011-11-02T17:00:00Z,30.6671,-87.9365,3.003,9.08,1111122 
DISL,ioos:station:DISL:MHPA:1,2011-11-02T17:30:00Z,30.6671,-87.9365,2.93,9.07,1111122 
DISL,ioos:station:DISL:MHPA:1,2011-11-02T18:00:00Z,30.6671,-87.9365,2.88,9.07,1111122 
DISL,ioos:station:DISL:MHPA:1,2011-11-02T18:30:00Z,30.6671,-87.9365,2.849,9.06,1111122 
DISL,ioos:station:DISL:MHPA:1,2011-11-02T19:00:00Z,30.6671,-87.9365,2.824,9.07,1111122 
DISL,ioos:station:DISL:MHPA:1,2011-11-02T19:30:00Z,30.6671,-87.9365,2.764,8.98,1111122 
DISL,ioos:station:DISL:MHPA:1,2011-11-02T20:00:00Z,30.6671,-87.9365,2.743,8.92,1111122 
DISL,ioos:station:DISL:MHPA:1,2011-11-02T20:30:00Z,30.6671,-87.9365,2.762,8.93,1111122 
DISL,ioos:station:DISL:MHPA:1,2011-11-02T21:00:00Z,30.6671,-87.9365,2.774,8.98,1111122 
DISL,ioos:station:DISL:MHPA:1,2011-11-02T21:30:00Z,30.6671,-87.9365,2.851,8.89,1111122 
DISL,ioos:station:DISL:MHPA:1,2011-11-02T22:00:00Z,30.6671,-87.9365,2.911,8.93,1111122 
DISL,ioos:station:DISL:MHPA:1,2011-11-02T22:30:00Z,30.6671,-87.9365,2.937,8.96,1111122 
DISL,ioos:station:DISL:MHPA:1,2011-11-02T23:00:00Z,30.6671,-87.9365,3.001,8.94,1111122 
DISL,ioos:station:DISL:MHPA:1,2011-11-02T23:30:00Z,30.6671,-87.9365,3.003,8.93,1111122 
DISL,ioos:station:DISL:MHPA:1,2011-11-03T00:00:00Z,30.6671,-87.9365,3.031,8.95,1111122 
DISL,ioos:station:DISL:MHPA:1,2011-11-03T00:30:00Z,30.6671,-87.9365,3.098,8.94,1111122 
DISL,ioos:station:DISL:MHPA:1,2011-11-03T01:00:00Z,30.6671,-87.9365,3.147,8.95,1111122 
DISL,ioos:station:DISL:MHPA:1,2011-11-03T01:30:00Z,30.6671,-87.9365,3.158,8.95,1111122 
DISL,ioos:station:DISL:MHPA:1,2011-11-03T02:00:00Z,30.6671,-87.9365,3.235,8.96,1111122 
DISL,ioos:station:DISL:MHPA:1,2011-11-03T02:30:00Z,30.6671,-87.9365,3.371,8.97,1111122 
DISL,ioos:station:DISL:MHPA:1,2011-11-03T03:00:00Z,30.6671,-87.9365,3.449,8.97,1111122 
DISL,ioos:station:DISL:MHPA:1,2011-11-03T03:30:00Z,30.6671,-87.9365,3.55,8.97,1111122 
DISL,ioos:station:DISL:MHPA:1,2011-11-03T04:00:00Z,30.6671,-87.9365,3.642,8.93,1111122 
DISL,ioos:station:DISL:MHPA:1,2011-11-03T04:30:00Z,30.6671,-87.9365,3.715,8.93,1111122 
DISL,ioos:station:DISL:MHPA:1,2011-11-03T05:00:00Z,30.6671,-87.9365,3.79,8.84,1111122 
DISL,ioos:station:DISL:MHPA:1,2011-11-03T05:30:00Z,30.6671,-87.9365,3.863,8.82,1111122 
DISL,ioos:station:DISL:MHPA:1,2011-11-03T06:00:00Z,30.6671,-87.9365,3.883,8.84,1111122 
DISL,ioos:station:DISL:MHPA:1,2011-11-03T06:30:00Z,30.6671,-87.9365,3.976,8.83,1111122 
DISL,ioos:station:DISL:MHPA:1,2011-11-03T07:00:00Z,30.6671,-87.9365,4.082,8.8,1111122 
DISL,ioos:station:DISL:MHPA:1,2011-11-03T07:30:00Z,30.6671,-87.9365,4.135,8.81,1111122 
DISL,ioos:station:DISL:MHPA:1,2011-11-03T08:00:00Z,30.6671,-87.9365,4.227,8.81,1111122 
DISL,ioos:station:DISL:MHPA:1,2011-11-03T08:30:00Z,30.6671,-87.9365,4.284,8.8,1111122 
DISL,ioos:station:DISL:MHPA:1,2011-11-03T09:00:00Z,30.6671,-87.9365,4.32,8.81,1111122 
DISL,ioos:station:DISL:MHPA:1,2011-11-03T09:30:00Z,30.6671,-87.9365,4.367,8.8,1111122 
DISL,ioos:station:DISL:MHPA:1,2011-11-03T10:00:00Z,30.6671,-87.9365,4.405,8.82,1111122 
DISL,ioos:station:DISL:MHPA:1,2011-11-03T10:30:00Z,30.6671,-87.9365,4.408,8.83,1111122 
DISL,ioos:station:DISL:MHPA:1,2011-11-03T11:00:00Z,30.6671,-87.9365,4.418,8.84,1111122 
DISL,ioos:station:DISL:MHPA:1,2011-11-03T11:30:00Z,30.6671,-87.9365,4.334,8.86,1111122 
DISL,ioos:station:DISL:MHPA:1,2011-11-03T12:00:00Z,30.6671,-87.9365,4.283,8.87,1111122 
DISL,ioos:station:DISL:MHPA:1,2011-11-03T12:30:00Z,30.6671,-87.9365,4.224,8.87,1111122 
DISL,ioos:station:DISL:MHPA:1,2011-11-03T13:00:00Z,30.6671,-87.9365,4.11,8.87,1111122 
DISL,ioos:station:DISL:MHPA:1,2011-11-03T13:30:00Z,30.6671,-87.9365,4.069,8.84,1111122 
DISL,ioos:station:DISL:MHPA:1,2011-11-03T14:00:00Z,30.6671,-87.9365,4.003,8.85,1111122 
DISL,ioos:station:DISL:MHPA:1,2011-11-03T14:30:00Z,30.6671,-87.9365,3.958,8.83,1111122 
DISL,ioos:station:DISL:MHPA:1,2011-11-03T15:00:00Z,30.6671,-87.9365,3.931,8.81,1111122 
DISL,ioos:station:DISL:MHPA:1,2011-11-03T15:30:00Z,30.6671,-87.9365,3.956,8.8,1111122 
DISL,ioos:station:DISL:MHPA:1,2011-11-03T16:00:00Z,30.6671,-87.9365,3.951,8.82,1111122 
DISL,ioos:station:DISL:MHPA:1,2011-11-03T16:30:00Z,30.6671,-87.9365,3.913,8.81,1111122 
DISL,ioos:station:DISL:MHPA:1,2011-11-03T17:00:00Z,30.6671,-87.9365,3.864,8.8,1111122 
DISL,ioos:station:DISL:MHPA:1,2011-11-03T17:30:00Z,30.6671,-87.9365,3.805,8.8,1111122 
DISL,ioos:station:DISL:MHPA:1,2011-11-03T18:00:00Z,30.6671,-87.9365,3.788,8.79,1111122 
DISL,ioos:station:DISL:MHPA:1,2011-11-03T18:30:00Z,30.6671,-87.9365,3.784,8.8,1111122 
DISL,ioos:station:DISL:MHPA:1,2011-11-03T19:00:00Z,30.6671,-87.9365,3.833,8.79,1111122 
DISL,ioos:station:DISL:MHPA:1,2011-11-03T19:30:00Z,30.6671,-87.9365,3.753,8.81,1111122 
DISL,ioos:station:DISL:MHPA:1,2011-11-03T20:00:00Z,30.6671,-87.9365,3.588,8.82,1111122 
DISL,ioos:station:DISL:MHPA:1,2011-11-03T20:30:00Z,30.6671,-87.9365,3.576,8.83,1111122 
DISL,ioos:station:DISL:MHPA:1,2011-11-03T21:00:00Z,30.6671,-87.9365,3.471,8.85,1111122 
DISL,ioos:station:DISL:MHPA:1,2011-11-03T21:30:00Z,30.6671,-87.9365,3.277,8.85,1111122 
DISL,ioos:station:DISL:MHPA:1,2011-11-03T22:00:00Z,30.6671,-87.9365,3.231,8.86,1111122 
DISL,ioos:station:DISL:MHPA:1,2011-11-03T22:30:00Z,30.6671,-87.9365,3.117,8.88,1111122 
DISL,ioos:station:DISL:MHPA:1,2011-11-03T23:00:00Z,30.6671,-87.9365,3.031,8.88,1111122 
DISL,ioos:station:DISL:MHPA:1,2011-11-03T23:30:00Z,30.6671,-87.9365,2.902,8.88,1111122 
DISL,ioos:station:DISL:MHPA:1,2011-11-04T00:00:00Z,30.6671,-87.9365,2.852,8.89,1111122 
DISL,ioos:station:DISL:MHPA:1,2011-11-04T00:30:00Z,30.6671,-87.9365,2.817,8.88,1111122 
DISL,ioos:station:DISL:MHPA:1,2011-11-04T01:00:00Z,30.6671,-87.9365,2.763,8.87,1111122 
DISL,ioos:station:DISL:MHPA:1,2011-11-04T01:30:00Z,30.6671,-87.9365,2.632,8.89,1111122 
DISL,ioos:station:DISL:MHPA:1,2011-11-04T02:00:00Z,30.6671,-87.9365,2.503,8.88,1111122 
DISL,ioos:station:DISL:MHPA:1,2011-11-04T02:30:00Z,30.6671,-87.9365,2.427,8.86,1111122 
DISL,ioos:station:DISL:MHPA:1,2011-11-04T03:00:00Z,30.6671,-87.9365,2.354,8.85,1111122 
DISL,ioos:station:DISL:MHPA:1,2011-11-04T03:30:00Z,30.6671,-87.9365,2.285,8.86,1111122 
DISL,ioos:station:DISL:MHPA:1,2011-11-04T04:00:00Z,30.6671,-87.9365,2.249,8.85,1111122 
DISL,ioos:station:DISL:MHPA:1,2011-11-04T04:30:00Z,30.6671,-87.9365,2.284,8.87,1111122 
DISL,ioos:station:DISL:MHPA:1,2011-11-04T05:00:00Z,30.6671,-87.9365,2.361,8.86,1111122 
DISL,ioos:station:DISL:MHPA:1,2011-11-04T05:30:00Z,30.6671,-87.9365,2.367,8.88,1111122 
DISL,ioos:station:DISL:MHPA:1,2011-11-04T06:00:00Z,30.6671,-87.9365,2.314,8.88,1111122 
DISL,ioos:station:DISL:MHPA:1,2011-11-04T06:30:00Z,30.6671,-87.9365,2.362,8.9,1111122 
DISL,ioos:station:DISL:MHPA:1,2011-11-04T07:00:00Z,30.6671,-87.9365,2.414,8.91,1111122 
DISL,ioos:station:DISL:MHPA:1,2011-11-04T07:30:00Z,30.6671,-87.9365,2.496,8.9,1111122 
DISL,ioos:station:DISL:MHPA:1,2011-11-04T08:00:00Z,30.6671,-87.9365,2.575,8.9,1111122 
DISL,ioos:station:DISL:MHPA:1,2011-11-04T08:30:00Z,30.6671,-87.9365,2.63,8.91,1111122 
DISL,ioos:station:DISL:MHPA:1,2011-11-04T09:00:00Z,30.6671,-87.9365,2.74,8.9,1111122 
DISL,ioos:station:DISL:MHPA:1,2011-11-04T09:30:00Z,30.6671,-87.9365,2.781,8.9,1111122 
DISL,ioos:station:DISL:MHPA:1,2011-11-04T10:00:00Z,30.6671,-87.9365,2.788,8.9,1111122 
DISL,ioos:station:DISL:MHPA:1,2011-11-04T10:30:00Z,30.6671,-87.9365,2.849,8.89,1111122 
DISL,ioos:station:DISL:MHPA:1,2011-11-04T11:00:00Z,30.6671,-87.9365,2.959,8.87,1111122 
DISL,ioos:station:DISL:MHPA:1,2011-11-04T11:30:00Z,30.6671,-87.9365,3.061,8.83,1111122 
DISL,ioos:station:DISL:MHPA:1,2011-11-04T12:00:00Z,30.6671,-87.9365,3.12,8.82,1111122 
DISL,ioos:station:DISL:MHPA:1,2011-11-04T12:30:00Z,30.6671,-87.9365,3.112,8.85,1111122 
DISL,ioos:station:DISL:MHPA:1,2011-11-04T13:00:00Z,30.6671,-87.9365,3.091,8.87,1111122 
DISL,ioos:station:DISL:MHPA:1,2011-11-04T13:30:00Z,30.6671,-87.9365,3.09,8.86,1111122 
DISL,ioos:station:DISL:MHPA:1,2011-11-04T14:00:00Z,30.6671,-87.9365,3.104,8.81,1111122 
DISL,ioos:station:DISL:MHPA:1,2011-11-04T14:30:00Z,30.6671,-87.9365,3.088,8.84,1111122 
DISL,ioos:station:DISL:MHPA:1,2011-11-04T15:00:00Z,30.6671,-87.9365,2.999,8.86,1111122 
DISL,ioos:station:DISL:MHPA:1,2011-11-04T15:30:00Z,30.6671,-87.9365,2.881,8.85,1111122 
DISL,ioos:station:DISL:MHPA:1,2011-11-04T16:00:00Z,30.6671,-87.9365,2.824,8.86,1111122 
DISL,ioos:station:DISL:MHPA:1,2011-11-04T16:30:00Z,30.6671,-87.9365,2.783,8.84,1111122 
DISL,ioos:station:DISL:MHPA:1,2011-11-04T17:00:00Z,30.6671,-87.9365,2.71,8.82,1111122 
DISL,ioos:station:DISL:MHPA:1,2011-11-04T17:30:00Z,30.6671,-87.9365,2.648,8.79,1111122 
DISL,ioos:station:DISL:MHPA:1,2011-11-04T18:00:00Z,30.6671,-87.9365,2.627,8.79,1111122 
DISL,ioos:station:DISL:MHPA:1,2011-11-04T18:30:00Z,30.6671,-87.9365,2.574,8.79,1111122 
DISL,ioos:station:DISL:MHPA:1,2011-11-04T19:00:00Z,30.6671,-87.9365,2.547,8.78,1111122 
DISL,ioos:station:DISL:MHPA:1,2011-11-04T19:30:00Z,30.6671,-87.9365,2.567,7.68,1111122 
DISL,ioos:station:DISL:MHPA:1,2011-11-04T20:00:00Z,30.6671,-87.9365,2.612,7.71,1111122 
DISL,ioos:station:DISL:MHPA:1,2011-11-04T20:30:00Z,30.6671,-87.9365,2.578,7.63,1111122 
DISL,ioos:station:DISL:MHPA:1,2011-11-04T21:00:00Z,30.6671,-87.9365,2.497,7.56,1111122 
DISL,ioos:station:DISL:MHPA:1,2011-11-04T21:30:00Z,30.6671,-87.9365,2.398,7.26,1111122 
DISL,ioos:station:DISL:MHPA:1,2011-11-04T22:00:00Z,30.6671,-87.9365,2.311,7.6,1111122 
DISL,ioos:station:DISL:MHPA:1,2011-11-04T22:30:00Z,30.6671,-87.9365,2.296,8.28,1111122 
DISL,ioos:station:DISL:MHPA:1,2011-11-04T23:00:00Z,30.6671,-87.9365,2.344,7.72,1111122 
DISL,ioos:station:DISL:MHPA:1,2011-11-04T23:30:00Z,30.6671,-87.9365,2.438,7.26,1111122 
DISL,ioos:station:DISL:MHPA:1,2011-11-05T00:00:00Z,30.6671,-87.9365,2.504,7.7,1111122 
DISL,ioos:station:DISL:MHPA:1,2011-11-05T00:30:00Z,30.6671,-87.9365,2.624,7.93,1111122 
DISL,ioos:station:DISL:MHPA:1,2011-11-05T01:00:00Z,30.6671,-87.9365,2.722,7.57,1111122 
DISL,ioos:station:DISL:MHPA:1,2011-11-05T01:30:00Z,30.6671,-87.9365,2.792,8.03,1111122 
DISL,ioos:station:DISL:MHPA:1,2011-11-05T02:00:00Z,30.6671,-87.9365,2.889,7.43,1111122 
DISL,ioos:station:DISL:MHPA:1,2011-11-05T02:30:00Z,30.6671,-87.9365,2.976,8.04,1111122 
DISL,ioos:station:DISL:MHPA:1,2011-11-05T03:00:00Z,30.6671,-87.9365,2.973,7.02,1111122 
DISL,ioos:station:DISL:MHPA:1,2011-11-05T03:30:00Z,30.6671,-87.9365,2.969,7.07,1111122 
DISL,ioos:station:DISL:MHPA:1,2011-11-05T04:00:00Z,30.6671,-87.9365,2.946,7.75,1111122 
DISL,ioos:station:DISL:MHPA:1,2011-11-05T04:30:00Z,30.6671,-87.9365,2.96,7.55,1111122 
DISL,ioos:station:DISL:MHPA:1,2011-11-05T05:00:00Z,30.6671,-87.9365,2.989,7.96,1111122 
DISL,ioos:station:DISL:MHPA:1,2011-11-05T05:30:00Z,30.6671,-87.9365,3.031,7.72,1111122 
DISL,ioos:station:DISL:MHPA:1,2011-11-05T06:00:00Z,30.6671,-87.9365,3.002,7.53,1111122 
DISL,ioos:station:DISL:MHPA:1,2011-11-05T06:30:00Z,30.6671,-87.9365,2.958,7.5,1111122 
DISL,ioos:station:DISL:MHPA:1,2011-11-05T07:00:00Z,30.6671,-87.9365,2.903,7.39,1111122 
DISL,ioos:station:DISL:MHPA:1,2011-11-05T07:30:00Z,30.6671,-87.9365,2.828,7.81,1111122 
DISL,ioos:station:DISL:MHPA:1,2011-11-05T08:00:00Z,30.6671,-87.9365,2.732,7.52,1111122 
DISL,ioos:station:DISL:MHPA:1,2011-11-05T08:30:00Z,30.6671,-87.9365,2.678,7.69,1111122 
DISL,ioos:station:DISL:MHPA:1,2011-11-05T09:00:00Z,30.6671,-87.9365,2.634,7.49,1111122 
DISL,ioos:station:DISL:MHPA:1,2011-11-05T09:30:00Z,30.6671,-87.9365,2.624,7.18,1111122 
DISL,ioos:station:DISL:MHPA:1,2011-11-05T10:00:00Z,30.6671,-87.9365,2.603,7.25,1111122 
DISL,ioos:station:DISL:MHPA:1,2011-11-05T10:30:00Z,30.6671,-87.9365,2.569,7.05,1111122 
DISL,ioos:station:DISL:MHPA:1,2011-11-05T11:00:00Z,30.6671,-87.9365,2.521,7.56,1111122 
DISL,ioos:station:DISL:MHPA:1,2011-11-05T11:30:00Z,30.6671,-87.9365,2.551,7.21,1111122 
DISL,ioos:station:DISL:MHPA:1,2011-11-05T12:00:00Z,30.6671,-87.9365,2.604,8.28,1111122 
DISL,ioos:station:DISL:MHPA:1,2011-11-05T12:30:00Z,30.6671,-87.9365,2.671,8.29,1111122 
DISL,ioos:station:DISL:MHPA:1,2011-11-05T13:00:00Z,30.6671,-87.9365,2.718,8.44,1111122 
DISL,ioos:station:DISL:MHPA:1,2011-11-05T13:30:00Z,30.6671,-87.9365,2.706,8.38,1111122 
DISL,ioos:station:DISL:MHPA:1,2011-11-05T14:00:00Z,30.6671,-87.9365,2.776,8.02,1111122 
DISL,ioos:station:DISL:MHPA:1,2011-11-05T14:30:00Z,30.6671,-87.9365,2.922,8.36,1111122 
DISL,ioos:station:DISL:MHPA:1,2011-11-05T15:00:00Z,30.6671,-87.9365,3.043,8.44,1111122 
DISL,ioos:station:DISL:MHPA:1,2011-11-05T15:30:00Z,30.6671,-87.9365,3.083,7.96,1111122 
DISL,ioos:station:DISL:MHPA:1,2011-11-05T16:00:00Z,30.6671,-87.9365,3.058,7.66,1111122 
DISL,ioos:station:DISL:MHPA:1,2011-11-05T16:30:00Z,30.6671,-87.9365,3.046,7.88,1111122 
DISL,ioos:station:DISL:MHPA:1,2011-11-05T17:00:00Z,30.6671,-87.9365,3.109,7.75,1111122 
DISL,ioos:station:DISL:MHPA:1,2011-11-05T17:30:00Z,30.6671,-87.9365,3.181,7.66,1111122 
DISL,ioos:station:DISL:MHPA:1,2011-11-05T18:00:00Z,30.6671,-87.9365,3.213,7.83,1111122 
DISL,ioos:station:DISL:MHPA:1,2011-11-05T18:30:00Z,30.6671,-87.9365,3.251,8.0,1111122 
DISL,ioos:station:DISL:MHPA:1,2011-11-05T19:00:00Z,30.6671,-87.9365,3.241,8.18,1111122 
DISL,ioos:station:DISL:MHPA:1,2011-11-05T19:30:00Z,30.6671,-87.9365,3.229,7.97,1111122 
DISL,ioos:station:DISL:MHPA:1,2011-11-05T20:00:00Z,30.6671,-87.9365,3.283,8.11,1111122 
DISL,ioos:station:DISL:MHPA:1,2011-11-05T20:30:00Z,30.6671,-87.9365,3.285,8.04,1111122 
DISL,ioos:station:DISL:MHPA:1,2011-11-05T21:00:00Z,30.6671,-87.9365,3.325,8.14,1111122 
DISL,ioos:station:DISL:MHPA:1,2011-11-05T21:30:00Z,30.6671,-87.9365,3.375,8.21,1111122 
DISL,ioos:station:DISL:MHPA:1,2011-11-05T22:00:00Z,30.6671,-87.9365,3.44,8.16,1111122 
DISL,ioos:station:DISL:MHPA:1,2011-11-05T22:30:00Z,30.6671,-87.9365,3.494,8.19,1111122 
DISL,ioos:station:DISL:MHPA:1,2011-11-05T23:00:00Z,30.6671,-87.9365,3.56,8.22,1111122 
DISL,ioos:station:DISL:MHPA:1,2011-11-05T23:30:00Z,30.6671,-87.9365,3.593,8.06,1111122 
DISL,ioos:station:DISL:MHPA:1,2011-11-06T00:00:00Z,30.6671,-87.9365,3.655,8.06,1111122 
DISL,ioos:station:DISL:MHPA:1,2011-11-06T00:30:00Z,30.6671,-87.9365,3.672,8.05,1111122 
DISL,ioos:station:DISL:MHPA:1,2011-11-06T01:00:00Z,30.6671,-87.9365,3.718,7.94,1111122 
DISL,ioos:station:DISL:MHPA:1,2011-11-06T01:30:00Z,30.6671,-87.9365,3.755,7.85,1111122 
DISL,ioos:station:DISL:MHPA:1,2011-11-06T02:00:00Z,30.6671,-87.9365,3.79,7.71,1111122 
DISL,ioos:station:DISL:MHPA:1,2011-11-06T02:30:00Z,30.6671,-87.9365,3.789,7.73,1111122 
DISL,ioos:station:DISL:MHPA:1,2011-11-06T03:00:00Z,30.6671,-87.9365,3.749,7.77,1111122 
DISL,ioos:station:DISL:MHPA:1,2011-11-06T03:30:00Z,30.6671,-87.9365,3.775,7.84,1111122 
DISL,ioos:station:DISL:MHPA:1,2011-11-06T04:00:00Z,30.6671,-87.9365,3.752,7.81,1111122 
DISL,ioos:station:DISL:MHPA:1,2011-11-06T04:30:00Z,30.6671,-87.9365,3.689,7.53,1111122 
DISL,ioos:station:DISL:MHPA:1,2011-11-06T05:00:00Z,30.6671,-87.9365,3.609,7.71,1111122 
DISL,ioos:station:DISL:MHPA:1,2011-11-06T05:30:00Z,30.6671,-87.9365,3.6,7.31,1111122 
DISL,ioos:station:DISL:MHPA:1,2011-11-06T06:00:00Z,30.6671,-87.9365,3.571,7.35,1111122 
DISL,ioos:station:DISL:MHPA:1,2011-11-06T06:30:00Z,30.6671,-87.9365,3.49,7.14,1111122 
DISL,ioos:station:DISL:MHPA:1,2011-11-06T07:00:00Z,30.6671,-87.9365,3.381,7.29,1111122 
DISL,ioos:station:DISL:MHPA:1,2011-11-06T07:30:00Z,30.6671,-87.9365,3.268,7.25,1111122 
DISL,ioos:station:DISL:MHPA:1,2011-11-06T08:00:00Z,30.6671,-87.9365,3.17,7.38,1111122 
DISL,ioos:station:DISL:MHPA:1,2011-11-06T08:30:00Z,30.6671,-87.9365,3.105,7.11,1111122 
DISL,ioos:station:DISL:MHPA:1,2011-11-06T09:00:00Z,30.6671,-87.9365,3.039,7.16,1111122 
DISL,ioos:station:DISL:MHPA:1,2011-11-06T09:30:00Z,30.6671,-87.9365,3.001,6.99,1111122 
DISL,ioos:station:DISL:MHPA:1,2011-11-06T10:00:00Z,30.6671,-87.9365,3.035,7.16,1111122 
DISL,ioos:station:DISL:MHPA:1,2011-11-06T10:30:00Z,30.6671,-87.9365,3.005,7.11,1111122 
DISL,ioos:station:DISL:MHPA:1,2011-11-06T11:00:00Z,30.6671,-87.9365,2.979,6.96,1111122 
DISL,ioos:station:DISL:MHPA:1,2011-11-06T11:30:00Z,30.6671,-87.9365,2.973,7.13,1111122 
DISL,ioos:station:DISL:MHPA:1,2011-11-06T12:00:00Z,30.6671,-87.9365,3.014,7.15,1111122 
DISL,ioos:station:DISL:MHPA:1,2011-11-06T12:30:00Z,30.6671,-87.9365,3.053,7.14,1111122 
DISL,ioos:station:DISL:MHPA:1,2011-11-06T13:00:00Z,30.6671,-87.9365,2.95,7.21,1111122 
DISL,ioos:station:DISL:MHPA:1,2011-11-06T13:30:00Z,30.6671,-87.9365,3.012,7.17,1111122 
DISL,ioos:station:DISL:MHPA:1,2011-11-06T14:00:00Z,30.6671,-87.9365,3.044,7.16,1111122 
DISL,ioos:station:DISL:MHPA:1,2011-11-06T14:30:00Z,30.6671,-87.9365,2.996,7.07,1111122 
DISL,ioos:station:DISL:MHPA:1,2011-11-06T15:00:00Z,30.6671,-87.9365,3.076,7.09,1111122 
DISL,ioos:station:DISL:MHPA:1,2011-11-06T15:30:00Z,30.6671,-87.9365,3.131,7.16,1111122 